Find Starlink 33833

NORAD ID: 63498 Int'l Des: 2025-071 Owner: SPXS Country: US Constellation: starlink operational
LEOCIRCULAR

Live Position

Loading 3D Globe...

About Starlink 33833

Description loading...

Upcoming Passes

Passes for default location (London). Set your location on the main map for personalized predictions.

Altitude History

Loading altitude history...

Two-Line Element Set

1 63498U 25071F 26124.04677690 .00019748 00000-0 67708-3 0 9999
2 63498 53.1597 242.9128 0001139 85.8906 274.2225 15.30201527 61243
Epoch: May 4, 2026 • Age: 13 hours

Current Status

Altitude 479.6 km
Velocity 7.63 km/s
Sub-Earth Point 47.08°N, 138.03°W
Launch Date Apr 7, 2025
Age 1 years
Type internet

Technical Details

Classification Payload
Mass 575.00 kg
Dry Mass 530.00 kg
Total Mass 575.00 kg
Length 0.30 m
Diameter 4.10 m
Span 29.00 m
Shape Box + pan
Manufacturer SPXS
Bus Type Starlink V2MO
Phase Status In Orbit
Owner/State SPXS/US

Most Searched